Simultaneous Nadir Overpasses (SNOs) Predictions

Prediction of SNOs between FY3D and NOAA-19 Satellite Orbit:

Table of predicted SNOs for the next 14.0 days since TLE Epoch: 3/3/2023
Index Date (FY3D) Time (FY3D) Lat,Lon (FY3D) SZA (FY3D ) Date (NOAA-19) Time (NOAA-19) Lat,Lon (NOAA-19) SZA (NOAA-19 ) Distance(km) Time Diff (sec)
1 03/04/2023 10:02:26 -76.44,-160.35 96.85 03/04/2023 10:01:19 -76.43,-163.26 96.68 75.90 67
2 03/04/2023 10:53:21 76.81, 5.51 83.58 03/04/2023 10:52:14 76.82, 5.61 83.60 3.08 67
3 03/04/2023 11:44:06 -76.81, 172.82 96.44 03/04/2023 11:43:09 -76.83, 172.90 96.41 2.73 57
4 03/04/2023 12:34:53 76.83, -19.95 83.57 03/04/2023 12:34:13 76.84, -19.82 83.59 3.55 40
5 03/04/2023 13:25:38 -76.83, 147.37 96.45 03/04/2023 13:25:08 -76.84, 147.47 96.43 3.04 30
6 03/04/2023 14:16:25 76.85, -45.40 83.57 03/04/2023 14:16:13 76.81, -45.43 83.54 3.91 12
7 03/04/2023 15:07:10 -76.85, 121.91 96.45 03/04/2023 15:07:07 -76.86, 122.04 96.45 3.49 3
8 03/04/2023 15:57:57 76.86, -70.86 83.56 03/04/2023 15:58:12 76.83, -70.86 83.52 4.19 15
9 03/04/2023 16:48:42 -76.86, 96.46 96.46 03/04/2023 16:49:07 -76.83, 96.43 96.49 3.70 25
10 03/04/2023 17:39:28 76.84, -96.14 83.51 03/04/2023 17:40:11 76.84, -96.29 83.51 3.81 43
11 03/04/2023 18:30:14 -76.88, 71.00 96.46 03/04/2023 18:31:06 -76.85, 71.00 96.51 3.94 52
12 03/04/2023 19:21:00 76.86,-121.59 83.50 03/04/2023 19:22:10 76.86,-121.72 83.49 3.12 70
13 03/04/2023 20:11:50 -77.07, 44.82 96.26 03/04/2023 20:13:01 -77.03, 46.31 96.40 37.41 71



Historial Predications of SNOs between FY3D and NOAA-19
